Content
SEND FEEDBACK

Daily
Averages
Monthly
Summary
United States of America

BUTLER, GEORGIA


Home > North America > United States > Georgia
Elevation: 20 meters     Latitude: 32 33N     Longitude: 084 14W

WEATHER
 
SELECT A DAY
Number of Records: 336,101;   Date Range: 10/4/00 - 7/26/14
 
SHARE

PRINT THIS DATA

[ ← Previous Day ]
WEATHER ALMANAC - 23 JANUARY, 2013
[ Next Day → ]
[ °F ]   °C
Weather ElementAverageHighLow
Temperature6.4 °C13 °C (2:55 pm)-1 °C (7:15 am)
Dewpoint-0.6 °C5 °C (8:15 pm)-5 °C (12:35 am)
Humidity62.1 %80 % (7:55 am)47 % (1:35 pm)
Barometer1026.4 hPa1029.8 hPa (9:55 am)1023.4 hPa (11:35 pm)
Wind Speed9.3 km/h22.2 km/h (3:55 pm)
Wind Gust31.5 km/h (2:35 pm)
Weather ElementAverage
Visibility16.1 km
Wind DirectionSSW (207.9 °)

Weather ElementTotal
Precipitation---
Heating Degree Days12.3 (Base 18.3)
Averaged from 71 records on 23 January, 2013
WEATHER CONDITIONS BREAKOUT
WIND DIRECTION BREAKOUT
WEATHER BY HOUR - 23 JANUARY, 2013
[ °F ]   °C
Local TimeTemperatureDewpointHumidityBarometerVisibilityWind DirectionWind SpeedGust SpeedPrecipitationEventsConditions
12:35 AM2 °C-5 °C60 %1026.8 hPa16.1 kmNNW (330°)5.6 km/hClear
12:55 AM2 °C-5 °C60 %1026.4 hPa16.1 kmNorth (350°)7.4 km/hClear
1:15 AM1 °C-5 °C65 %1026.8 hPa16.1 kmNorth (360°)7.4 km/hClear
1:35 AM1 °C-5 °C65 %1027.1 hPa16.1 kmNorth (360°)7.4 km/hClear
1:55 AM1 °C-5 °C65 %1027.1 hPa16.1 kmNorth (360°)9.3 km/hClear
2:15 AM1 °C-5 °C65 %1027.1 hPa16.1 kmNorth (350°)7.4 km/hClear
2:35 AM1 °C-5 °C65 %1027.1 hPa16.1 kmNorth (360°)5.6 km/hClear
2:55 AM0 °C-5 °C69 %1027.1 hPa16.1 kmNorth (360°)9.3 km/hClear
3:15 AM0 °C-5 °C69 %1027.1 hPa16.1 kmNorth (360°)9.3 km/hClear
3:35 AM0 °C-5 °C69 %1027.1 hPa16.1 kmNorth (360°)5.6 km/hClear
3:55 AM0 °C-5 °C69 %1027.1 hPa16.1 kmCalmScattered Clouds
4:15 AM0 °C-5 °C69 %1027.1 hPa16.1 kmCalmMostly Cloudy
4:35 AM0 °C-5 °C69 %1027.1 hPa16.1 kmCalmOvercast
4:55 AM0 °C-5 °C69 %1027.1 hPa16.1 kmNNW (330°)5.6 km/hMostly Cloudy
5:15 AM0 °C-5 °C69 %1027.1 hPa16.1 kmCalmOvercast
5:35 AM0 °C-5 °C69 %1027.4 hPa16.1 kmCalmOvercast
5:55 AM0 °C-5 °C69 %1027.4 hPa16.1 kmCalmOvercast
6:15 AM0 °C-5 °C69 %1027.8 hPa16.1 kmCalmOvercast
6:35 AM0 °C-5 °C69 %1028.1 hPa16.1 kmNNE (30°)5.6 km/hMostly Cloudy
6:55 AM0 °C-5 °C69 %1028.1 hPa16.1 kmCalmMostly Cloudy
7:15 AM-1 °C-5 °C75 %1028.4 hPa16.1 kmCalmScattered Clouds
7:35 AM-1 °C-5 °C75 %1028.4 hPa16.1 kmCalmMostly Cloudy
7:55 AM-1 °C-4 °C80 %1028.4 hPa16.1 kmNE (40°)5.6 km/hOvercast
8:15 AM0 °C-5 °C69 %1028.4 hPa16.1 kmNE (50°)5.6 km/hOvercast
8:35 AM0 °C-5 °C69 %1028.8 hPa16.1 kmCalmOvercast
8:55 AM1 °C-5 °C65 %1029.1 hPa16.1 kmCalmOvercast
9:15 AM1 °C-5 °C65 %1029.5 hPa16.1 kmNNW (340°)5.6 km/hOvercast
9:35 AM2 °C-5 °C60 %1029.5 hPa16.1 kmCalmOvercast
9:55 AM3 °C-4 °C60 %1029.8 hPa16.1 kmCalmOvercast
10:15 AM4 °C-4 °C56 %1029.8 hPa16.1 kmCalmOvercast
10:35 AM5 °C-4 °C53 %1029.8 hPa16.1 kmCalmOvercast
10:55 AM6 °C-3 °C53 %1029.8 hPa16.1 kmCalmMostly Cloudy
11:15 AM7 °C-2 °C53 %1029.5 hPa16.1 kmWSW (250°)5.6 km/hScattered Clouds
11:35 AM8 °C-2 °C50 %1029.1 hPa16.1 kmWSW (250°)11.1 km/hClear
11:55 AM7 °C-2 °C53 %1028.8 hPa16.1 kmWest (260°)13 km/hScattered Clouds
12:15 PM8 °C-2 °C50 %1028.8 hPa16.1 kmWest (260°)9.3 km/hMostly Cloudy
12:35 PM9 °C0 °C54 %1028.1 hPa16.1 kmNW (310°)18.5 km/hOvercast
12:55 PM9 °C0 °C54 %1027.4 hPa16.1 kmWNW (290°)13 km/hOvercast
1:15 PM10 °C0 °C50 %1027.1 hPa16.1 kmWest (280°)18.5 km/hOvercast
1:35 PM11 °C0 °C47 %1026.4 hPa16.1 kmWest (280°)18.5 km/h29.6 km/hMostly Cloudy
1:55 PM11 °C1 °C50 %1026.1 hPa16.1 kmWest (270°)14.8 km/h27.8 km/hScattered Clouds
2:15 PM12 °C2 °C51 %1025.7 hPa16.1 kmWNW (300°)20.4 km/h29.6 km/hClear
2:35 PM12 °C2 °C51 %1025.4 hPa16.1 kmWest (280°)14.8 km/h31.5 km/hClear
2:55 PM13 °C3 °C51 %1025.1 hPa16.1 kmWNW (290°)20.4 km/hClear
3:15 PM13 °C3 °C51 %1024.7 hPa16.1 kmWest (270°)20.4 km/h25.9 km/hClear
3:35 PM13 °C3 °C51 %1024.7 hPa16.1 kmWNW (290°)20.4 km/hClear
3:55 PM13 °C4 °C54 %1024.7 hPa16.1 kmWNW (290°)22.2 km/h31.5 km/hClear
4:15 PM13 °C4 °C54 %1024.4 hPa16.1 kmWest (270°)22.2 km/h29.6 km/hClear
4:35 PM13 °C4 °C54 %1024.4 hPa16.1 kmWNW (290°)18.5 km/hClear
4:55 PM13 °C4 °C54 %1024.4 hPa16.1 kmWest (280°)13 km/hClear
5:15 PM13 °C4 °C54 %1024.4 hPa16.1 kmWest (280°)11.1 km/hClear
5:35 PM12 °C4 °C58 %1024.4 hPa16.1 kmWest (280°)9.3 km/hClear
5:55 PM12 °C4 °C58 %1024 hPa16.1 kmWSW (250°)9.3 km/hClear
6:15 PM11 °C4 °C62 %1024 hPa16.1 kmSW (230°)9.3 km/hClear
6:35 PM11 °C3 °C58 %1024 hPa16.1 kmWSW (240°)11.1 km/hClear
6:55 PM11 °C3 °C58 %1024 hPa16.1 kmWSW (250°)7.4 km/hScattered Clouds
7:15 PM11 °C4 °C62 %1024.7 hPa16.1 kmWest (260°)9.3 km/hScattered Clouds
7:35 PM11 °C4 °C62 %1024.4 hPa16.1 kmWest (260°)13 km/hMostly Cloudy
7:55 PM11 °C4 °C62 %1024 hPa16.1 kmWSW (250°)11.1 km/hOvercast
8:15 PM11 °C5 °C67 %1024 hPa16.1 kmWest (260°)14.8 km/hOvercast
8:35 PM11 °C5 °C67 %1023.7 hPa16.1 kmWSW (250°)14.8 km/hOvercast
8:55 PM11 °C5 °C67 %1023.7 hPa16.1 kmWest (260°)16.7 km/hOvercast
9:15 PM11 °C5 °C67 %1023.7 hPa16.1 kmWest (260°)16.7 km/hOvercast
9:35 PM11 °C5 °C67 %1023.7 hPa16.1 kmWSW (250°)16.7 km/hOvercast
9:55 PM11 °C5 °C67 %1023.7 hPa16.1 kmWest (260°)18.5 km/h25.9 km/hOvercast
10:15 PM10 °C5 °C71 %1023.7 hPa16.1 kmWSW (250°)16.7 km/hMostly Cloudy
10:35 PM10 °C5 °C71 %1023.7 hPa16.1 kmWest (260°)13 km/hScattered Clouds
10:55 PM10 °C5 °C71 %1023.7 hPa16.1 kmWest (260°)13 km/hOvercast
11:15 PM10 °C5 °C71 %1023.7 hPa16.1 kmWest (270°)11.1 km/hOvercast
11:35 PM10 °C5 °C71 %1023.4 hPa16.1 kmWest (260°)9.3 km/hOvercast
11:55 PM11 °C5 °C67 %1023.4 hPa16.1 kmWest (270°)11.1 km/hOvercast
Hourly data recorded from KOPN, located 0 kilometers away from Butler, Georgia







STORIES FROM OUR PARTNERS